TimeHST,TemperatureF,Dew PointF,Humidity,Sea Level PressureIn,VisibilityMPH,Wind Direction,Wind SpeedMPH,Gust SpeedMPH,PrecipitationIn,Events,Conditions,WindDirDegrees,DateUTC
12:04 AM,62.6,59.0,88,30.11,10.0,East,5.8,-,N/A,,Scattered Clouds,80,2013-03-14 10:04:00
12:20 AM,62.6,59.0,88,30.11,10.0,ENE,4.6,-,N/A,,Mostly Cloudy,60,2013-03-14 10:20:00
12:39 AM,62.6,60.8,94,30.10,10.0,NE,5.8,-,N/A,,Scattered Clouds,50,2013-03-14 10:39:00
12:56 AM,63.9,59.9,87,30.05,10.0,NE,4.6,-,N/A,,Clear,50,2013-03-14 10:56:00
1:36 AM,64.4,60.8,88,30.10,10.0,ENE,4.6,-,N/A,,Mostly Cloudy,60,2013-03-14 11:36:00
1:56 AM,64.9,61.0,87,30.04,10.0,NNE,6.9,-,N/A,,Overcast,30,2013-03-14 11:56:00
2:14 AM,64.4,60.8,88,30.09,10.0,NE,6.9,-,N/A,,Scattered Clouds,40,2013-03-14 12:14:00
2:56 AM,63.9,61.0,90,30.03,10.0,NE,6.9,-,N/A,,Partly Cloudy,40,2013-03-14 12:56:00
3:56 AM,63.9,61.0,90,30.02,10.0,NE,8.1,-,N/A,,Scattered Clouds,40,2013-03-14 13:56:00
4:56 AM,64.4,60.8,88,30.08,10.0,ENE,3.5,-,N/A,,Mostly Cloudy,60,2013-03-14 14:56:00
5:56 AM,61.9,59.0,90,30.04,10.0,East,4.6,-,N/A,,Clear,90,2013-03-14 15:56:00
6:56 AM,61.9,57.9,87,30.06,10.0,ENE,5.8,-,N/A,,Partly Cloudy,70,2013-03-14 16:56:00
7:56 AM,64.9,59.9,84,30.06,10.0,East,4.6,-,N/A,,Clear,90,2013-03-14 17:56:00
8:56 AM,68.9,59.9,73,30.08,10.0,Calm,Calm,-,N/A,,Clear,0,2013-03-14 18:56:00
9:56 AM,72.0,59.9,66,30.10,10.0,WNW,5.8,-,N/A,,Scattered Clouds,300,2013-03-14 19:56:00
10:56 AM,73.9,59.9,61,30.08,10.0,Variable,3.5,-,N/A,,Scattered Clouds,0,2013-03-14 20:56:00
11:15 AM,73.4,62.6,69,30.12,10.0,West,6.9,-,N/A,,Mostly Cloudy,280,2013-03-14 21:15:00
11:24 AM,73.4,60.8,65,30.12,10.0,WSW,8.1,-,N/A,,Scattered Clouds,250,2013-03-14 21:24:00
11:56 AM,74.8,59.9,60,30.06,10.0,Variable,4.6,-,N/A,,Scattered Clouds,0,2013-03-14 21:56:00
12:10 PM,75.2,60.8,61,30.10,10.0,WNW,5.8,-,N/A,,Mostly Cloudy,290,2013-03-14 22:10:00
12:56 PM,74.8,61.9,64,30.04,10.0,West,6.9,-,N/A,,Mostly Cloudy,280,2013-03-14 22:56:00
1:11 PM,77.0,60.8,57,30.08,10.0,West,6.9,-,N/A,,Mostly Cloudy,270,2013-03-14 23:11:00
1:56 PM,77.0,59.9,55,30.01,10.0,Variable,5.8,-,N/A,,Clear,0,2013-03-14 23:56:00
2:56 PM,79.9,61.9,54,29.98,10.0,West,10.4,-,N/A,,Clear,270,2013-03-15 00:56:00
3:56 PM,73.9,61.9,66,29.99,10.0,West,6.9,-,N/A,,Clear,280,2013-03-15 01:56:00
4:56 PM,72.0,63.0,73,30.00,10.0,WNW,4.6,-,N/A,,Partly Cloudy,290,2013-03-15 02:56:00
5:56 PM,70.0,61.9,75,30.02,10.0,WNW,4.6,-,N/A,,Partly Cloudy,300,2013-03-15 03:56:00
6:56 PM,68.9,63.0,81,30.01,10.0,Calm,Calm,-,N/A,,Overcast,0,2013-03-15 04:56:00
7:56 PM,69.8,62.6,78,30.06,10.0,Calm,Calm,-,N/A,,Mostly Cloudy,0,2013-03-15 05:56:00
8:21 PM,69.8,62.6,78,30.07,10.0,Calm,Calm,-,N/A,,Mostly Cloudy,0,2013-03-15 06:21:00
8:56 PM,68.9,63.0,81,30.03,10.0,Calm,Calm,-,N/A,,Overcast,0,2013-03-15 06:56:00
9:56 PM,68.0,63.0,84,30.03,10.0,Calm,Calm,-,N/A,,Mostly Cloudy,0,2013-03-15 07:56:00
10:17 PM,68.0,64.4,88,30.08,10.0,Calm,Calm,-,N/A,,Mostly Cloudy,0,2013-03-15 08:17:00
10:56 PM,68.0,62.6,83,30.07,10.0,Calm,Calm,-,N/A,Rain,Light Rain,0,2013-03-15 08:56:00
11:11 PM,68.0,64.4,88,30.07,10.0,Calm,Calm,-,0.00,Rain,Light Rain,0,2013-03-15 09:11:00
11:20 PM,68.0,64.4,88,30.07,10.0,Calm,Calm,-,0.00,,Mostly Cloudy,0,2013-03-15 09:20:00
11:56 PM,66.9,63.9,90,30.00,10.0,Calm,Calm,-,0.00,,Mostly Cloudy,0,2013-03-15 09:56:00